This is the latest recevied weather packets stored in our database for station/object KF7SOJ. If no packets are shown the sender has not sent any weather packets the latest 10 day(s).
| Time | Temp. | Humidity | Pressure | Rain* | Wind** | Luminosity | Snow |
|---|---|---|---|---|---|---|---|
| 1788189750 | 17.78° C | 43% | 934.4 hPa | 0 mm | - | 396 W/m² | - |
| 1788189450 | 17.78° C | 47% | 934.6 hPa | 0 mm | - | 381 W/m² | - |
| 1788189150 | 18.33° C | 37% | 934.7 hPa | 0 mm | - | 365 W/m² | - |
| 1788188845 | 17.78° C | 32% | 934.4 hPa | 0 mm | - | 349 W/m² | - |
| 1788188540 | 17.78° C | 34% | 934.4 hPa | 0 mm | - | 333 W/m² | - |
| 1788188239 | 17.22° C | 40% | 934.4 hPa | 0 mm | - | 313 W/m² | - |
| 1788187936 | 16.67° C | 44% | 934.4 hPa | 0 mm | - | 296 W/m² | - |
| 1788187631 | 16.11° C | 48% | 934.3 hPa | 0 mm | - | 279 W/m² | - |
| 1788187327 | 15.56° C | 48% | 934 hPa | 0 mm | - | 260 W/m² | - |
| 1788187026 | 15.56° C | 50% | 934.1 hPa | 0 mm | - | 240 W/m² | - |
| 1788186722 | 15° C | 49% | 934.2 hPa | 0 mm | - | 224 W/m² | - |
| 1788186418 | 14.44° C | 51% | 934.1 hPa | 0 mm | - | 208 W/m² | - |
| 1788186113 | 14.44° C | 56% | 933.7 hPa | 0 mm | - | 192 W/m² | - |
| 1788185812 | 13.89° C | 58% | 933.8 hPa | 0 mm | - | 176 W/m² | - |
| 1788185507 | 13.89° C | 61% | 933.9 hPa | 0 mm | - | 158 W/m² | - |
| 1788185206 | 13.89° C | 60% | 933.7 hPa | 0 mm | - | 142 W/m² | - |
| 1788184901 | 13.89° C | 56% | 933.7 hPa | 0 mm | - | 125 W/m² | - |
| 1788184599 | 13.33° C | 56% | 933.8 hPa | 0 mm | - | 108 W/m² | - |
| 1788184295 | 13.33° C | 58% | 933.6 hPa | 0 mm | - | 95 W/m² | - |
| 1788184006 | 12.78° C | 61% | 933.4 hPa | 0 mm | - | 84 W/m² | - |
| 1788183686 | 12.78° C | 62% | 933.3 hPa | 0 mm | - | 74 W/m² | - |
| 1788183385 | 12.78° C | 64% | 933.5 hPa | 0 mm | - | 66 W/m² | - |
| 1788183080 | 12.22° C | 64% | 933.5 hPa | 0 mm | - | 60 W/m² | - |
| 1788182776 | 11.67° C | 63% | 933.3 hPa | 0 mm | - | 54 W/m² | - |
| 1788182475 | 11.11° C | 66% | 933.3 hPa | 0 mm | - | 48 W/m² | - |
* Rain latest hour (hover to see other rain measurements)
** Current wind speed in m/s (hover to see current wind gust speed)